Regional Weather Roundup
Issued by NWS

Home | Current Version | Previous Version | Text Only | Print | Product List | Glossary Off
Versions: 1 2 3 4 5 6 7 8 9 10 11 12 13 14 15 16 17 18 19 20 21 22 23 24 25 26 27 28 29 30 31 32 33 34 35 36 37 38 39 40 41 42 43 44 45 46 47 48 49 50

000
ASUS43 KFSD 310302
RWRSD

WEATHER ROUNDUP FOR SOUTH DAKOTA
NATIONAL WEATHER SERVICE SIOUX FALLS SD
900 PM CST FRI JAN 30 2015

NOTE: "FAIR" INDICATES FEW OR NO CLOUDS BELOW 12,000 FEET WITH NO
SIGNIFICANT WEATHER AND/OR OBSTRUCTIONS TO VISIBILITY.


SDZ001>005-009-010-012>017-310400-
NORTHWEST AND NORTH CENTRAL SOUTH DAKOTA

CITY           SKY/WX    TMP DP  RH WIND       PRES   REMARKS
BUFFALO          N/A     35  25  66 N9        30.08F WCI  28
FAITH            N/A     29  20  69 N9        30.14F WCI  20
MOBRIDGE       CLEAR     28  24  85 N7        30.12F WCI  21
$$

SDZ012>016-024>037-041>051-057-063-072>074-310400-
SOUTHWEST AND SOUTH CENTRAL SOUTH DAKOTA

CITY           SKY/WX    TMP DP  RH WIND       PRES   REMARKS
RAPID CTY ARPT CLOUDY    34  23  64 N10       30.13F WCI  26
PIERRE         PTCLDY    27  21  78 N3        30.13F
CUSTER         CLOUDY    31  19  61 NE6       30.10F WCI  25
ELLSWORTH AFB  MOCLDY    38  23  53 N9        30.13F
PHILIP         MOCLDY    30  22  72 CALM      30.14S
PINE RIDGE     CLOUDY    29  22  75 CALM      30.13S
WINNER         FAIR      39  25  57 SW5       30.13F
$$

SDZ004>011-016>023-039-040-310400-
NORTHEAST SOUTH DAKOTA

CITY           SKY/WX    TMP DP  RH WIND       PRES   REMARKS
ABERDEEN       CLEAR     28  25  88 NW5       30.16F WCI  23
WATERTOWN      CLEAR     27  25  92 S3        30.12F
SISSETON         N/A     31  28  89 NW7       30.14R WCI  24
$$

SDZ017-020-022-023-036>040-048>070-310400-
SOUTHEAST SOUTH DAKOTA

CITY           SKY/WX    TMP DP  RH WIND       PRES   REMARKS
SIOUX FALLS    PTCLDY    34  27  75 SW10      30.16F WCI  26
HURON          CLEAR     27  25  92 CALM      30.14F
MITCHELL       CLEAR     36  27  69 S6        30.14S
YANKTON        CLEAR     34  25  69 SE7       30.19F WCI  28
$$

ABBREVIATIONS USED IN REMARKS
   TC - TEMPERATURE IN CELSIUS
  WCI - WIND CHILL INDEX
   HX - HEAT INDEX
  VSB - VISIBILITY



USA.gov is the U.S. government's official web portal to all federal, state and local government web resources and services.